Location: Monrovia
(34.7865°N, 86.7139°W)
Time: 00:47:10
(UTC+00:00)

ADEOS II - Pass Details

Date: 14 July 2020
Orbit: 799 x 801 km, 98.5° (Epoch: 12 August)

Event Time Altitude Azimuth Distance (km) Brightness Sun altitude
Rises 08:03:57 0° 13° (NNE) 3,314 6.4 -25.6°
Reaches altitude 10° 08:06:17 10° 13° (NNE) 2,380 5.4 -25.3°
Maximum altitude 08:11:34 87° 101° (ESE) 805 2.0 -24.7°
Enters shadow 08:12:21 66° 188° (S) 873 2.0 -24.6°
